Preview of NWS' New Version of Forecast
This preview is not operational and should not be used for support decisions.

Regional Weather Roundup (RWR)

Issued by National Weather Service (NWS)

                            
000
ASUS45 KABQ 251801
RWRNM 
NEW MEXICO REGIONAL WEATHER ROUNDUP
NATIONAL WEATHER SERVICE ALBUQUERQUE NM
1200 PM MDT SUN AUG 25 2019

NOTE: "FAIR" MEANS FEW OR NO CLOUDS BELOW 12,000 FEET AGL WITH NO
       SIGNIFICANT WEATHER OR OBSTRUCTIONS TO VISION.

      THIS PRODUCT IS RELEASED AS TWO VERSIONS.  ONE VERSION NEAR
      THE TOP OF THE HOUR CONTAINING PRELIMINARY DATA FROM ALBUQUERQUE
      AND OTHER STATIONS.  A FINAL VERSION WITH ADDITIONAL DATA IS 
      ISSUED ABOUT 10 MINUTES AFTER THE HOUR.
 
NMZ501-503-504-510>518-251900-
NORTHWEST PLATEAU/NORTHCENTRAL MOUNTAINS
  
CITY           SKY/WX    TMP DP  RH WIND       PRES   REMARKS
FARMINGTON     FAIR      85  32  15 SW9       30.15F                  
6HR MIN TEMP:  52; 6HR MAX TEMP:  86;                                

LOS ALAMOS       N/A     82  29  14 SE5       30.27F                  
SANTA FE       FAIR      87  33  14 SW9       30.19F                  
6HR MIN TEMP:  50; 6HR MAX TEMP:  87;                                

TAOS           FAIR      83  33  16 VRB6      30.26F                  
ANGEL FIRE     FAIR      77  33  20 N13       30.34F                  

$$
NMZ402-403-502-505>509-251900-
WESTCENTRAL MOUNTAINS/SOUTHWEST MOUNTAINS
  
CITY           SKY/WX    TMP DP  RH WIND       PRES   REMARKS
GALLUP         FAIR      84  37  18 VRB3G20   30.26F                  
6HR MIN TEMP:  55; 6HR MAX TEMP:  86;                                

GRANTS         FAIR      87  32  14 NW13G21   30.26F                  
SILVER CITY    FAIR      89  48  24 SW5       30.19S                  

$$
NMZ407-409-411-412-251900-
SOUTHERN DESERTS
  
CITY           SKY/WX    TMP DP  RH WIND       PRES   REMARKS
DEMING         FAIR      91  56  30 W8        30.10F                  
6HR MIN TEMP:  68; 6HR MAX TEMP:  91;                                

LAS CRUCES     FAIR      91  51  25 NE5       30.11F                  
HOLLOMAN AFB   FAIR      92  52  25 NW7       30.08F                  
ALAMOGORDO     FAIR      91  48  22 N7        30.07F                  
T OR C         FAIR      92  41  17 VRB5      30.12F                  
6HR MIN TEMP:  74; 6HR MAX TEMP:  92;                                


$$
NMZ519>523-251900-
CENTRAL VALLEYS/CENTRAL HIGHLANDS
  
CITY           SKY/WX    TMP DP  RH WIND       PRES   REMARKS
ALBUQUERQUE    FAIR      87  34  15 VRB5      30.15F                  
6HR MIN TEMP:  65; 6HR MAX TEMP:  87;                                

DOUBLE EAGLE   SUNNY     88  36  15 VRB7      30.18F                  
CLINES CORNERS FAIR      86  30  13 NW18G29   30.26F                  
6HR MIN TEMP:  54; 6HR MAX TEMP:  86;                                

BELEN          FAIR      89  33  14 SW3       30.15F                  
6HR MIN TEMP:  60; 6HR MAX TEMP:  89;                                

SOCORRO        FAIR      93  40  16 NE15G22   30.11F                  
6HR MIN TEMP:  65; 6HR MAX TEMP:  93;                                


$$
NMZ524>526-539-540-251900-
SOUTHCENTRAL MOUNTAINS
  
CITY           SKY/WX    TMP DP  RH WIND       PRES   REMARKS
RUIDOSO        FAIR      84  39  20 NW12G17   30.28F                  

$$
NMZ527>531-251900-
NORTHEAST HIGHLANDS/NORTHEAST PLAINS
  
CITY           SKY/WX    TMP DP  RH WIND       PRES   REMARKS
RATON          FAIR      91  34  13 VRB3      30.11F                  
6HR MIN TEMP:  50; 6HR MAX TEMP:  92;                                

CLAYTON        FAIR      93  43  17 NE8       30.01F                  
6HR MIN TEMP:  65; 6HR MAX TEMP:  93;                                


$$
NMZ532>537-251900-
EASTCENTRAL PLAINS
  
CITY           SKY/WX    TMP DP  RH WIND       PRES   REMARKS
SANTA ROSA     FAIR      97  41  14 W3        30.02F                  
TUCUMCARI      FAIR      95  46  18 CALM      29.93F                  
6HR MIN TEMP:  64; 6HR MAX TEMP:  95;                                

CANNON AFB     FAIR      91  51  25 NW3       30.00S                  
6HR MIN TEMP:  73; 6HR MAX TEMP:  91;                                

CLOVIS AIRPORT FAIR      91  55  29 N9        29.99F                  

$$
NMZ028-029-538-251900-
SOUTHEAST PLAINS
  
CITY           SKY/WX    TMP DP  RH WIND       PRES   REMARKS
ROSWELL        FAIR     102  47  15 NE7       29.93F HX  98           
6HR MIN TEMP:  73; 6HR MAX TEMP: 102;                                

ARTESIA        FAIR      99  48  18 VRB6G14   29.95F HX  95           
CARLSBAD       FAIR     102  48  16 W13G21    29.91F HX  98           
6HR MIN TEMP:  71; 6HR MAX TEMP: 102;                                

HOBBS          SUNNY    100  43  14 W10G18    29.94F HX  96           


$$